Home > Weather > Dawson Creek > Past weeks

Flag for Canada Past Weather in Dawson Creek, British Columbia, Canada — Yesterday and Last 2 Weeks

Now
43 °F

Light rain. Overcast.


Feels Like: 37 °F
Forecast: 38 / 47 °F
Wind: 10 mph from Northwest

Location: Dawson Creek Airport

Current Time: May 28, 2016 at 3:00:31 AM

Latest Report: May 28, 2016 at 2:00 AM


Visibility: 9 mi

Pressure: 29.92 "Hg (27.57 "Hg at 668m altitude)

Humidity: 87%

Dew Point: 39 °F

Location of Dawson CreekLocation

Past Weather in Dawson Creek — Graph

°F

Dawson Creek Temperature Yesterday

Maximum temperature yesterday: 61 °F (at 3:00 PM)
Minimum temperature yesterday: 37 °F (at 4:00 AM)
Average temperature yesterday: 50 °F

High & Low Weather Summary for the Past Weeks

 TemperatureHumidityPressure
High75 °F (May 16, 12:00 PM)100% (May 19, 11:02 AM)30.50 "Hg (May 19, 11:02 AM)
Low25 °F (May 13, 4:00 AM)16% (May 15, 5:00 PM)29.72 "Hg (May 24, 5:00 PM)
Average49 °F63%29.99 "Hg
* Reported May 13 1:00 AM — May 28 1:00 AM, Dawson Creek, Weather by CustomWeather, © 2016

Note: Actual official high and low records may vary slightly from our data, if they occured in-between our weather recording intervals... More about our weather records

Advertising

Dawson Creek Weather History for the Previous 24 Hours

Scroll right to see more
 ConditionsComfort  
Time TempWeatherWind HumidityBarometerVisibility
1:00 AM
Sat, May 28
45 °FLight rain. Overcast.10 mph87%29.92 "Hg9 mi
12:00 AM46 °FLight rain. Mostly cloudy.10 mph87%29.92 "Hg9 mi
11:00 PM
Fri, May 27
46 °FLight rain. Overcast.8 mph87%29.92 "Hg9 mi
10:00 PM46 °FLight rain. Overcast.8 mph93%29.93 "Hg9 mi
9:00 PM46 °FRain. Mostly cloudy.12 mph93%29.92 "Hg7 mi
8:00 PM48 °FLight rain. Overcast.9 mph82%29.93 "Hg9 mi
7:00 PM52 °FLight rain. Mostly cloudy.9 mph72%29.91 "Hg9 mi
6:00 PM57 °FMore clouds than sun.17 mph55%29.88 "Hg9 mi
5:00 PM59 °FPassing clouds.13 mph48%29.88 "Hg9 mi
4:00 PM61 °FSunny.8 mph34%29.88 "Hg9 mi
3:00 PM61 °FSunny.12 mph39%29.88 "Hg9 mi
2:00 PM59 °FSunny.9 mph42%29.88 "Hg9 mi
1:00 PM59 °FSunny.9 mph42%29.88 "Hg9 mi
12:00 PM59 °FScattered clouds.8 mph45%29.89 "Hg9 mi
11:00 AM57 °FSunny.9 mph48%29.89 "Hg9 mi
10:00 AM54 °FSunny.8 mph51%29.90 "Hg9 mi
9:00 AM50 °FPassing clouds.14 mph58%29.90 "Hg9 mi
8:00 AM50 °FSunny.12 mph58%29.90 "Hg9 mi
7:00 AM46 °FSunny.9 mph66%29.90 "Hg9 mi
6:00 AM43 °FPassing clouds.3 mph76%29.90 "Hg9 mi
5:00 AM37 °FPassing clouds.5 mph87%29.90 "Hg9 mi
4:00 AM37 °FPassing clouds.2 mph87%29.90 "Hg9 mi
3:00 AM41 °FPassing clouds.2 mph76%29.90 "Hg9 mi
Weather by CustomWeather, © 2016

See weather overviewHow to use our weather pages